Tracking 31028 objects as of 17-Jul-2025
HD Live streaming from Space Station
objects crossing your sky now

STARLINK-3275

Track STARLINK-3275 now!
10-day predictions
STARLINK-3275 is classified as:


NORAD ID: 50188
Int'l Code: 2021-125AJ
Perigee: 332.4 km
Apogee: 336.7 km
Inclination: 53.2 °
Period: 91.1 minutes
Semi major axis: 6705 km
RCS: Unknown
Launch date: December 18, 2021
Source: United States (US)
Launch site: AIR FORCE WESTERN TEST RANGE (AFWTR)
Your satellite tracking list
Your tracking list is empty




NASA's NSSDC Master Catalog

Two Line Element Set (TLE):
1 50188U 21125AJ  25197.95399731  .00246015  00000-0  12041-2 0  9991
2 50188  53.1967 114.3635 0003182 116.5886 243.5463 15.81063403202650
Source of the keplerian elements: AFSPC